Location: Rooftop Observatory
(39.0308°N, 87.1711°W)
Time: 16:16:06
(UTC-06:00)

Daily predictions for brighter satellites

Satellite Brightness Start Highest point End
(mag) Time Altitude Azimuth Time Altitude Azimuth Time Altitude Azimuth
USA 234 3.7 16:44:45 10° NE 16:51:09 58° NW 16:57:31 10° WSW
Cosmos 2263 Rocket 3.3 16:48:47 10° SW 16:54:07 44° WNW 16:59:30 10° N
NOSS 3-1 (A) 4.1 16:49:28 10° NNW 16:57:11 85° ENE 17:05:35 10° SE
CZ-3B DEB 2.4 16:54:12 10° S 16:57:11 36° ESE 17:03:46 10° NE
Thor Agena Rocket 3.7 16:52:16 10° NNE 16:57:23 57° ESE 17:02:32 10° S
Cosmos 1125 Rocket 3.6 16:52:25 10° SSW 16:57:43 89° WNW 17:03:04 10° NNE
CZ-4 R/B 1.5 16:55:24 10° SSE 16:59:33 64° ENE 17:03:42 10° N
Cosmos 1269 Rocket 4.0 16:57:27 10° NNW 17:02:48 77° ENE 17:08:05 10° SSE
Cosmos 1812 4.0 17:05:21 10° SE 17:08:20 21° E 17:11:19 10° NE
ATLAS 2AS CENTAUR R/B 3.5 17:01:37 10° NNW 17:09:07 39° NE 17:16:12 10° ESE
SL-8 Rocket 4.1 17:04:21 10° N 17:10:21 51° E 17:16:17 10° SSE
YAOGAN 1 2.6 17:07:26 10° SSE 17:11:42 61° ENE 17:15:59 10° N
Cosmos 2251 Rocket 4.3 17:08:09 10° N 17:12:48 29° ENE 17:17:23 10° ESE
Cosmos 1633 3.4 17:10:42 10° NNW 17:14:12 53° W 17:17:41 10° S
Cosmos 2181 Rocket 4.1 17:12:15 10° S 17:18:33 89° E 17:25:00 10° N
Cosmos 2366 rocket 4.3 17:13:45 10° N 17:19:49 44° ENE 17:25:48 10° SSE
Cosmos 1975 4.2 17:17:03 10° NNE 17:20:00 19° ENE 17:22:55 10° ESE
Cosmos 2218 Rocket 4.2 17:14:06 10° N 17:20:14 51° E 17:26:15 10° SSE
OTV 4 0.9 17:17:49 10° W 17:20:46 56° S 17:23:24 12° ESE
Cosmos 1844 Rocket 2.7 17:15:20 10° S 17:20:50 66° ESE 17:26:25 10° NNE
MOS 1 4.3 17:15:54 10° SSE 17:21:35 89° WSW 17:27:16 10° NNW
Cosmos 1844 3.8 17:22:27 10° S 17:27:51 55° ESE 17:33:17 10° NNE
SL-27 R/B 3.0 17:26:30 10° N 17:29:56 37° ENE 17:33:20 10° SE
GEOS 3 Rocket 3.8 17:26:01 10° ESE 17:30:52 46° NE 17:35:45 10° NNW
Meteor 2-19 Rocket 4.4 17:26:21 10° N 17:32:25 68° E 17:38:25 10° SSE
SKYMED 2 3.9 17:28:49 10° NNE 17:32:58 43° E 17:37:05 10° S
Cosmos 1455 Rocket 3.2 17:32:01 10° N 17:36:17 48° E 17:40:33 10° SSE
SL-8 R/B 4.4 17:32:04 10° SSW 17:36:27 37° SE 17:39:03 21° E
ISS -3.1 17:33:40 10° WSW 17:36:56 66° NW 17:38:49 23° NE
CORIOLIS 4.4 17:35:04 10° S 17:40:28 74° WSW 17:45:54 10° NNW
BREEZE-M R/B 4.4 17:32:17 10° SW 17:43:59 72° SE 17:47:38 23° ENE
COSMOS 2406 3.5 17:40:20 10° NNW 17:46:02 71° WSW 17:51:43 10° SSE
Cosmos 2278 Rocket 2.5 17:40:52 10° S 17:46:14 47° ESE 17:50:04 19° NE
Cosmos 158 Rocket 4.4 17:41:45 10° NNW 17:47:06 69° WSW 17:52:18 10° S
SL-08 R/B 4.5 17:45:12 10° N 17:51:38 84° E 17:57:57 10° S
Cosmos 1484 Rocket 2.5 17:51:06 10° SSE 17:54:53 82° ENE 17:58:39 10° N
CZ-2C R/B 3.7 17:50:30 10° S 17:55:08 43° W 17:59:58 10° NNW
Cosmos 1238 Rocket 2.9 17:59:43 10° SSW 18:02:39 50° W 18:04:44 17° N
Tiangong 1 3.6 18:06:03 10° S 18:06:36 12° SSE 18:06:36 12° SSE
IDEFIX/ARIANE 42P 4.3 18:05:54 10° SSW 18:10:34 33° W 18:15:15 10° NNW
Cosmos 2082 Rocket 3.4 18:07:41 10° N 18:10:50 24° NNE 18:10:50 24° NNE
Nadezhda 3 Rocket 3.9 18:08:10 10° S 18:14:13 61° E 18:20:21 10° NNE
Okean 1 3.4 18:11:13 10° SSW 18:15:15 75° W 18:17:54 21° N
Cosmos 1833 Rocket 4.2 18:15:54 10° N 18:18:13 20° NNE 18:18:13 20° NNE
COSMO-SKYMED 1 3.3 18:16:47 10° N 18:21:01 52° WNW 18:25:13 10° SSW
Meteor 2-21 4.3 18:18:07 10° N 18:24:19 78° E 18:30:28 10° S
Cosmos 1500 3.8 18:24:02 10° N 18:28:52 48° S 18:31:41 10° S
Meteor 1-28 Rocket 3.5 18:29:51 55° NNW 18:30:26 65° WNW 18:34:12 10° SSW
METEOR-M 4.0 18:32:05 10° SSE 18:37:25 84° ENE 18:42:47 10° NNW
Cosmos 1346 Rocket 3.2 18:34:52 10° SSW 18:38:33 60° W 18:38:33 60° W
NOAA 12 4.1 18:35:02 10° S 18:40:19 78° WSW 18:45:37 10° NNW
Meteor 2-14 Rocket 4.3 18:43:06 10° N 18:49:17 90° ESE 18:55:25 10° S
NOSS 3-3 (A) 4.2 18:44:01 10° SW 18:50:09 66° NW 18:52:24 41° NNE
NOSS 3-3 (C) 4.2 18:44:07 10° SW 18:50:15 66° NW 18:52:28 42° NNE
OTV 4 3.9 18:54:34 10° WSW 18:55:03 13° WSW 18:55:03 13° WSW
ATLAS 2AS CENTAUR R/B 3.6 18:52:41 10° NW 19:00:24 53° WSW 19:07:33 10° S
FALCON 9 R/B 3.1 18:42:18 10° WSW 19:00:40 63° S 19:01:52 56° SE
Cosmos 2297 4.1 19:06:43 10° SSW 19:11:32 60° WSW 19:11:32 60° WSW
Timation 2 Rocket 4.1 19:06:45 10° NNW 19:13:13 81° NW 19:13:13 81° NW
ATLAS 3B CENTAUR R/B 3.7 19:09:44 10° WSW 19:21:25 37° SSW 19:22:04 36° S
Cosmos 2278 Rocket 4.1 19:25:58 10° WSW 19:30:32 25° NW 19:31:58 22° NNW
CZ-3B DEB 4.1 19:27:45 10° W 19:33:03 37° N 19:34:11 36° N
Cosmos 2082 Rocket 4.5 19:51:21 10° NW 19:52:45 17° NW 19:52:45 17° NW
